Overview Statistics Trail Chart Weather Telemetry Raw packets
 

This is the latest recevied weather packets stored in our database for station/object DL3NDS-WX. If no packets are shown the sender has not sent any weather packets the latest 10 day(s).

<< 519 520 521 522 523 524 525 >>
Time Temp. Humidity Pressure Rain* Wind** Luminosity Snow
1787915739 17.78° C 88% 1017.8 hPa 1.02 mm - 32 W/m² -
1787915679 17.78° C 88% 1017.9 hPa 1.02 mm - 28 W/m² -
1787915617 17.78° C 88% 1017.8 hPa 1.02 mm - 23 W/m² -
1787915557 17.78° C 87% 1017.9 hPa 1.02 mm - 21 W/m² -
1787915495 17.78° C 87% 1017.9 hPa 1.02 mm - 19 W/m² -
1787915433 17.78° C 87% 1018 hPa 1.02 mm - 18 W/m² -
1787915378 18.33° C 87% 1018.1 hPa 1.02 mm - 16 W/m² -
1787915312 18.33° C 87% 1018.2 hPa 1.02 mm - 14 W/m² -
1787915251 18.33° C 87% 1018.3 hPa 1.02 mm - 12 W/m² -
1787915189 18.33° C 86% 1018.4 hPa 1.02 mm - 12 W/m² -
1787915127 18.33° C 86% 1018.5 hPa 1.02 mm - 11 W/m² -
1787915065 18.33° C 86% 1018.5 hPa 0.76 mm - 11 W/m² -
1787915003 18.33° C 86% 1018.4 hPa 0.76 mm - 11 W/m² -
1787914947 18.33° C 86% 1018.4 hPa 0.76 mm - 9 W/m² -
1787914887 18.89° C 85% 1018.3 hPa 0.76 mm - 9 W/m² -
1787914820 18.89° C 85% 1018.2 hPa 0.76 mm - 7 W/m² -
1787914759 18.89° C 85% 1018.1 hPa 0.76 mm - 7 W/m² -
1787914696 19.44° C 85% 1018.3 hPa 0.76 mm - 7 W/m² -
1787914635 19.44° C 85% 1018.1 hPa 0.76 mm - 12 W/m² -
1787914571 19.44° C 86% 1018 hPa 0.76 mm - 14 W/m² -
1787914513 19.44° C 86% 1018 hPa 0.51 mm - 16 W/m² -
1787914452 20° C 86% 1018 hPa 0.51 mm - 16 W/m² -
1787914390 20° C 86% 1018 hPa 0.51 mm - 12 W/m² -
1787914328 20° C 86% 1017.9 hPa 0.51 mm - 7 W/m² -
1787914267 20° C 86% 1017.9 hPa 0.51 mm - 7 W/m² -

* Rain latest hour (hover to see other rain measurements)
** Current wind speed in m/s (hover to see current wind gust speed)